This is the latest recevied weather packets stored in our database for station/object WX1NWA. If no packets are shown the sender has not sent any weather packets the latest 10 day(s).
| Time | Temp. | Humidity | Pressure | Rain* | Wind** | Luminosity | Snow |
|---|---|---|---|---|---|---|---|
| 1778021050 | 12.22° C | 99% | 1009.6 hPa | 0 mm | - | 12 W/m² | - |
| 1778020746 | 12.22° C | 99% | 1009.1 hPa | 0 mm | - | 23 W/m² | - |
| 1778020443 | 12.22° C | 99% | 1009.2 hPa | 0 mm | - | 25 W/m² | - |
| 1778020139 | 12.78° C | 99% | 1009 hPa | 0 mm | - | 27 W/m² | - |
| 1778019836 | 12.78° C | 99% | 1008.8 hPa | 0 mm | - | 29 W/m² | - |
| 1778019532 | 12.78° C | 99% | 1008.7 hPa | 0 mm | - | 22 W/m² | - |
| 1778019229 | 12.78° C | 99% | 1008.8 hPa | 0 mm | - | 30 W/m² | - |
| 1778018926 | 12.78° C | 99% | 1009 hPa | 0 mm | - | 41 W/m² | - |
| 1778018623 | 12.78° C | 99% | 1009.5 hPa | 0 mm | - | 19 W/m² | - |
| 1778018321 | 12.78° C | 99% | 1009.1 hPa | 0 mm | - | 20 W/m² | - |
| 1778018019 | 12.78° C | 99% | 1008.8 hPa | 0 mm | - | 28 W/m² | - |
| 1778017717 | 13.33° C | 99% | 1008.8 hPa | 0 mm | - | 23 W/m² | - |
| 1778017414 | 13.89° C | 99% | 1008.6 hPa | 0 mm | - | 25 W/m² | - |
| 1778017111 | 14.44° C | 99% | 1008.9 hPa | 0 mm | - | 29 W/m² | - |
| 1778016809 | 14.44° C | 99% | 1008.9 hPa | 0 mm | - | 47 W/m² | - |
| 1778016505 | 15° C | 99% | 1009 hPa | 0 mm | - | 58 W/m² | - |
| 1778016202 | 15° C | 99% | 1009.2 hPa | 0 mm | - | 42 W/m² | - |
| 1778015898 | 16.67° C | 99% | 1009.1 hPa | 0 mm | - | 13 W/m² | - |
| 1778015596 | 17.78° C | 99% | 1009.1 hPa | 0 mm | - | 19 W/m² | - |
| 1778015292 | 18.33° C | 99% | 1009 hPa | 0 mm | - | 32 W/m² | - |
| 1778014989 | 18.33° C | 99% | 1009.3 hPa | 0 mm | - | 53 W/m² | - |
| 1778014686 | 18.33° C | 99% | 1009 hPa | 0 mm | - | 94 W/m² | - |
| 1778014384 | 18.33° C | 99% | 1009.3 hPa | 0 mm | - | 37 W/m² | - |
| 1778014081 | 18.33° C | 99% | 1009.2 hPa | 0 mm | - | 59 W/m² | - |
| 1778013779 | 18.33° C | 99% | 1008.9 hPa | 0 mm | - | 127 W/m² | - |
* Rain latest hour (hover to see other rain measurements)
** Current wind speed in m/s (hover to see current wind gust speed)